View from above orbital plane
|
View from above satellite
|
Ground track
|
The orbit data is extracted from the following two-line orbital elements,
1 39271U 13055G 21015.76465784 .00003925 00000-0 93804-4 0 9999
2 39271 80.9649 38.2208 0576667 250.5587 103.2453 14.50686310381488
Epoch (UTC): | 15 January 2021 18:21:06 |
Eccentricity: | 0.0576667 |
inclination: | 80.9649° |
perigee height: | 314 km |
apogee height: | 1133 km |
right ascension of ascending node: | 38.2208° |
argument of perigee: | 250.5587° |
revolutions per day: | 14.50686310 |
mean anomaly at epoch: | 103.2453° |
orbit number at epoch: | 38148 |
The dashed part of the orbit path shows where the satellite is in the earth's shadow,
|
|